This is the latest recevied weather packets stored in our database for station/object WB8ZGM-13. If no packets are shown the sender has not sent any weather packets the latest 10 day(s).
| Time | Temp. | Humidity | Pressure | Rain* | Wind** | Luminosity | Snow |
|---|---|---|---|---|---|---|---|
| 1777698877 | 11.11° C | 64% | 998.2 hPa | 0 mm | - | - | - |
| 1777697977 | 11.67° C | 64% | 998.2 hPa | 0 mm | - | - | - |
| 1777697077 | 12.22° C | 62% | 998.2 hPa | 0 mm | - | - | - |
| 1777696177 | 12.22° C | 62% | 998.2 hPa | 0 mm | - | - | - |
| 1777695247 | 12.78° C | 61% | 998.3 hPa | 0 mm | - | - | - |
| 1777694317 | 12.78° C | 60% | 998.5 hPa | 0 mm | - | - | - |
| 1777693387 | 12.78° C | 59% | 998.6 hPa | 0 mm | - | - | - |
| 1777692457 | 12.78° C | 58% | 998.9 hPa | 0 mm | - | - | - |
| 1777691527 | 12.78° C | 59% | 999 hPa | 0 mm | - | - | - |
| 1777690600 | 13.33° C | 57% | 998.8 hPa | 0 mm | - | - | - |
| 1777689667 | 13.33° C | 56% | 998.7 hPa | 0 mm | - | - | - |
| 1777688767 | 13.33° C | 56% | 998.6 hPa | 0 mm | - | - | - |
| 1777687867 | 13.33° C | 56% | 998.5 hPa | 0 mm | - | - | - |
| 1777686937 | 12.78° C | 56% | 998.2 hPa | 0 mm | - | - | - |
| 1777686007 | 13.33° C | 54% | 998.3 hPa | 0 mm | - | - | - |
| 1777685077 | 13.89° C | 52% | 998 hPa | 0 mm | - | - | - |
| 1777684147 | 14.44° C | 50% | 998 hPa | 0 mm | - | - | - |
| 1777683217 | 14.44° C | 49% | 997.6 hPa | 0 mm | - | - | - |
| 1777682287 | 15° C | 47% | 997.1 hPa | 0 mm | - | - | - |
| 1777681357 | 15.56° C | 44% | 997.1 hPa | 0 mm | - | - | - |
| 1777680427 | 16.67° C | 42% | 996.6 hPa | 0 mm | - | - | - |
| 1777679497 | 16.67° C | 42% | 996.2 hPa | 0 mm | - | - | - |
| 1777678567 | 17.22° C | 42% | 996.1 hPa | 0 mm | - | - | - |
| 1777677637 | 17.22° C | 40% | 996.1 hPa | 0 mm | - | - | - |
| 1777676737 | 18.33° C | 40% | 996.1 hPa | 0 mm | - | - | - |
* Rain latest hour (hover to see other rain measurements)
** Current wind speed in m/s (hover to see current wind gust speed)